Location: Columbia
(38.9520°N, 92.3340°W)
Time: 10:34:26
(UTC-05:00)

Tiangong 1 - Visible Passes

Search period start: 03 July 2015 00:00
Search period end: 13 July 2015 00:00
Orbit: 374 x 390 km, 42.8° (Epoch: 03 July)

Date Brightness Start Highest point End Pass type
(mag) Time Alt. Az. Time Alt. Az. Time Alt. Az.
03 Jul 1.2 22:10:12 10° WSW 22:13:21 74° NNW 22:16:19 11° ENE visible
03 Jul 3.6 23:47:18 10° WNW 23:48:30 20° WNW 23:48:30 20° WNW visible
04 Jul 1.0 21:09:47 10° WSW 21:12:55 68° SSE 21:16:02 10° ENE visible
04 Jul 2.3 22:46:42 10° W 22:49:43 42° N 22:51:05 25° NE visible
05 Jul 1.8 21:46:03 10° W 21:49:09 53° NNW 21:52:14 10° ENE visible
05 Jul 2.7 23:23:08 10° WNW 23:25:33 35° NNW 23:25:33 35° NNW visible
06 Jul 2.4 22:22:33 10° WNW 22:25:32 38° N 22:27:43 16° ENE visible
06 Jul 4.0 23:59:22 10° WNW 23:59:51 14° WNW 23:59:51 14° WNW visible
07 Jul 2.3 21:21:52 10° W 21:24:54 42° N 21:27:55 10° ENE visible
07 Jul 1.9 22:58:50 10° WNW 23:01:53 46° N 23:01:55 46° NNE visible
08 Jul 2.3 21:58:15 10° WNW 22:01:15 39° N 22:03:55 12° ENE visible
08 Jul 3.5 23:34:58 10° WNW 23:36:03 20° WNW 23:36:03 20° WNW visible
09 Jul 1.4 22:34:24 10° WNW 22:37:32 61° NNE 22:38:01 52° ENE visible
10 Jul 2.0 21:33:49 10° WNW 21:36:53 45° N 21:39:55 10° E visible
10 Jul 3.0 23:10:32 10° WNW 23:12:05 25° W 23:12:05 25° W visible
11 Jul 0.9 22:09:53 10° WNW 22:13:02 90° WSW 22:14:01 41° ESE visible
12 Jul 1.5 21:09:15 10° WNW 21:12:24 59° NNE 21:15:30 10° E visible
12 Jul 2.7 22:46:08 10° W 22:48:05 25° WSW 22:48:05 25° WSW visible
